Date String (YYYY-MM-DD hh:mm:ss) UTC,Instrument flags,Ambient pressure (hPa),Sample flow (lpm),Bypass flow (lpm),Sample temperature (°C),Ambient temperature (°C),ASC tube jacket temperature (°C),LED temperature (°C),Box temperature (°C),Sample RH (%),Span deviation,Mass concentration (μg/m³),Mass concentration (μg/m³),Mass concentration (μg/m³)
DateTimeUTC,F1_M11,P_M11,Q1_M11,Q2_M11,T1_M11,T2_M11,T3_M11,T4_M11,T5_M11,U1_M11,ZSPAN_M11,X2_M11,X0_M11,X1_M11
2022-08-07 13:00:00,,0830.1,5.01,0.00,30.8,27.6,00.0,39.3,31.8,35.0,0000.0,0006.31,0011.41,0005.38
2022-08-07 13:01:00,,0830.1,5.01,0.00,30.8,27.7,00.0,39.3,31.9,34.8,0000.0,0006.30,0011.17,0005.36
2022-08-07 13:02:00,,0830.1,4.99,0.00,30.9,27.8,00.0,39.3,32.0,34.7,0000.0,0006.29,0011.09,0005.34
2022-08-07 13:03:00,,0830.2,4.99,0.00,30.9,27.9,00.0,39.3,31.9,34.7,0000.0,0006.24,0010.88,0005.31
2022-08-07 13:04:00,,0830.3,5.01,0.00,30.9,28.1,00.0,39.3,31.9,34.7,0000.0,0006.21,0010.87,0005.29
2022-08-07 13:05:00,,0830.2,4.99,0.00,30.9,28.2,00.0,39.3,31.9,34.8,0000.0,0006.18,0011.13,0005.27
2022-08-07 13:06:00,,0830.2,5.00,0.00,30.9,28.3,00.0,39.3,32.0,35.1,0000.0,0006.14,0011.38,0005.25
2022-08-07 13:07:00,,0830.3,4.99,0.00,31.0,28.4,00.0,39.3,32.1,34.8,0000.0,0006.11,0011.32,0005.24
2022-08-07 13:08:00,,0830.3,5.01,0.00,31.1,28.5,00.0,39.3,32.2,34.5,0000.0,0006.06,0011.41,0005.19
2022-08-07 13:09:00,,0830.3,5.00,0.00,31.2,28.6,00.0,39.3,32.2,34.2,0000.0,0006.03,0011.55,0005.16
2022-08-07 13:10:00,,0830.3,5.00,0.00,31.2,28.7,00.0,39.4,32.2,34.3,0000.0,0005.97,0011.29,0005.14
2022-08-07 13:11:00,,0830.3,4.99,0.00,31.2,28.8,00.0,39.4,32.2,34.4,0000.0,0005.92,0010.74,0005.11
2022-08-07 13:12:00,,0830.3,5.00,0.00,31.2,28.8,00.0,39.4,32.2,34.6,0000.0,0005.90,0010.72,0005.09
2022-08-07 13:13:00,,0830.4,4.99,0.00,31.2,28.9,00.0,39.5,32.2,34.5,0000.0,0005.87,0010.96,0005.08
2022-08-07 13:14:00,,0830.4,5.00,0.00,31.2,28.9,00.0,39.5,32.2,34.6,0000.0,0005.89,0011.50,0005.08
2022-08-07 13:15:00,,0830.5,5.00,0.00,31.2,29.0,00.0,39.5,32.2,34.5,0000.0,0005.86,0011.41,0005.08
2022-08-07 13:16:00,,0830.4,5.00,0.00,31.2,29.0,00.0,39.5,32.3,34.9,0000.0,0005.88,0011.13,0005.06
2022-08-07 13:17:00,,0830.4,5.02,0.00,31.2,29.1,00.0,39.6,32.3,34.8,0000.0,0005.89,0010.88,0005.06
2022-08-07 13:18:00,,0830.4,4.99,0.00,31.3,29.1,00.0,39.6,32.4,34.4,0000.0,0005.89,0011.28,0005.06
2022-08-07 13:19:00,,0830.4,5.00,0.00,31.4,29.2,00.0,39.6,32.5,33.8,0000.0,0005.90,0011.78,0005.07
2022-08-07 13:20:00,,0830.4,5.02,0.00,31.4,29.1,00.0,39.6,32.4,33.8,0000.0,0005.91,0011.58,0005.07
2022-08-07 13:21:00,,0830.4,4.99,0.00,31.4,28.6,00.0,39.6,32.3,33.8,0000.0,0005.93,0011.81,0005.08
2022-08-07 13:22:00,,0830.4,5.01,0.00,31.4,27.9,00.0,39.6,32.2,34.0,0000.0,0005.96,0011.80,0005.09
2022-08-07 13:23:00,,0830.4,5.00,0.00,31.3,27.6,00.0,39.6,32.1,34.0,0000.0,0006.00,0011.90,0005.11
2022-08-07 13:24:00,,0830.3,4.99,0.00,31.2,27.7,00.0,39.5,32.0,34.3,0000.0,0005.98,0011.78,0005.12
2022-08-07 13:25:00,,0830.3,5.00,0.00,31.1,27.7,00.0,39.5,32.0,34.4,0000.0,0005.98,0011.63,0005.13
2022-08-07 13:26:00,,0830.3,5.00,0.00,31.0,27.9,00.0,39.5,32.0,34.7,0000.0,0006.00,0011.72,0005.15
2022-08-07 13:27:00,,0830.3,4.99,0.00,30.9,28.0,00.0,39.5,32.0,34.7,0000.0,0006.02,0011.92,0005.16
2022-08-07 13:28:00,,0830.3,5.00,0.00,30.9,28.2,00.0,39.5,32.0,34.9,0000.0,0006.03,0011.95,0005.18
2022-08-07 13:29:00,,0830.3,5.01,0.00,30.8,28.3,00.0,39.5,32.0,34.9,0000.0,0006.06,0011.49,0005.21
2022-08-07 13:30:00,,0830.3,5.00,0.00,30.8,28.4,00.0,39.5,32.0,35.0,0000.0,0006.13,0010.97,0005.24
2022-08-07 13:31:00,,0830.2,5.01,0.00,30.9,28.5,00.0,39.5,32.1,35.0,0000.0,0006.17,0011.10,0005.26
2022-08-07 13:32:00,,0830.3,4.99,0.00,31.1,28.6,00.0,39.4,32.2,34.7,0000.0,0006.21,0010.98,0005.26
2022-08-07 13:33:00,,0830.3,5.00,0.00,31.2,28.7,00.0,39.4,32.3,34.7,0000.0,0006.25,0011.35,0005.29
2022-08-07 13:34:00,,0830.3,5.00,0.00,31.2,28.8,00.0,39.4,32.3,34.6,0000.0,0006.25,0011.53,0005.29
2022-08-07 13:35:00,,0830.2,5.00,0.00,31.2,28.9,00.0,39.5,32.3,34.4,0000.0,0006.33,0011.49,0005.32
2022-08-07 13:36:00,,0830.2,4.99,0.00,31.2,28.9,00.0,39.5,32.3,34.2,0000.0,0006.37,0011.26,0005.33
2022-08-07 13:37:00,,0830.3,5.01,0.00,31.2,29.0,00.0,39.5,32.3,34.2,0000.0,0006.41,0011.56,0005.34
2022-08-07 13:38:00,,0830.2,5.01,0.00,31.2,29.0,00.0,39.6,32.3,34.5,0000.0,0006.37,0011.69,0005.35
2022-08-07 13:39:00,,0830.3,5.01,0.00,31.2,29.1,00.0,39.6,32.3,34.5,0000.0,0006.36,0011.65,0005.37
2022-08-07 13:40:00,,0830.3,5.00,0.00,31.2,29.1,00.0,39.6,32.4,34.6,0000.0,0006.36,0011.77,0005.36
2022-08-07 13:41:00,,0830.3,4.99,0.00,31.2,29.0,00.0,39.6,32.4,34.6,0000.0,0006.34,0011.66,0005.35
2022-08-07 13:42:00,,0830.3,5.00,0.00,31.1,28.4,00.0,39.6,32.2,34.7,0000.0,0006.33,0011.54,0005.34
2022-08-07 13:43:00,,0830.2,5.00,0.00,31.1,27.8,00.0,39.5,32.1,34.6,0000.0,0006.30,0011.33,0005.35
2022-08-07 13:44:00,,0830.2,5.01,0.00,31.0,27.7,00.0,39.5,32.0,35.0,0000.0,0006.27,0010.98,0005.36
2022-08-07 13:45:00,,0830.2,4.99,0.00,31.0,27.7,00.0,39.5,32.0,34.6,0000.4,0006.28,0010.75,0005.38
2022-08-07 13:46:00,,0830.2,5.00,0.00,31.0,27.8,00.0,39.5,32.0,34.7,0001.1,0006.32,0010.86,0005.41
2022-08-07 13:47:00,,0830.1,5.01,0.00,31.0,28.0,00.0,39.4,32.0,35.0,0000.3,0006.36,0010.84,0005.44
2022-08-07 13:48:00,,0830.1,5.00,0.00,31.1,28.1,00.0,39.4,32.1,34.6,0000.9,0006.41,0011.54,0005.47
2022-08-07 13:49:00,,0830.3,5.01,0.00,31.1,28.3,00.0,39.4,32.1,34.6,0001.2,0006.48,0011.43,0005.49
2022-08-07 13:50:00,,0830.1,5.00,0.00,31.1,28.4,00.0,39.4,32.1,34.5,0000.1,0006.51,0011.48,0005.51
2022-08-07 13:51:00,,0830.2,4.99,0.00,31.1,28.5,00.0,39.5,32.1,34.5,0000.2,0006.55,0011.50,0005.54
2022-08-07 13:52:00,,0830.2,5.00,0.00,31.1,28.6,00.0,39.5,32.1,34.7,0000.2,0006.58,0012.02,0005.58
2022-08-07 13:53:00,,0830.2,5.00,0.00,31.1,28.7,00.0,39.5,32.2,34.8,0000.0,0006.57,0012.03,0005.62
2022-08-07 13:54:00,,0830.1,5.01,0.00,31.1,28.8,00.0,39.5,32.2,34.9,0000.0,0006.62,0012.16,0005.65
2022-08-07 13:55:00,,0830.1,5.00,0.00,31.2,28.9,00.0,39.5,32.3,34.5,0000.0,0006.65,0012.25,0005.67
2022-08-07 13:56:00,,0830.1,5.00,0.00,31.2,29.0,00.0,39.5,32.3,34.5,0000.0,0006.68,0012.23,0005.67
2022-08-07 13:57:00,,0830.1,5.00,0.00,31.2,29.0,00.0,39.6,32.3,34.6,0000.0,0006.65,0012.10,0005.66
2022-08-07 13:58:00,,0830.1,5.00,0.00,31.2,29.1,00.0,39.6,32.3,34.4,0000.0,0006.59,0011.99,0005.63
2022-08-07 13:59:00,,0830.1,5.01,0.00,31.2,28.8,00.0,39.6,32.3,34.2,0000.0,0006.51,0011.11,0005.60
